�������l�o���
Date,Time,MP-1(��Sv/h),MP-2(��Sv/h),MP-3(��Sv/h),MP-4(��Sv/h),MP-5(��Sv/h),MP-6(��Sv/h),MP-7(��Sv/h),MP-8(��Sv/h),����,����(m/s),���J
2023/01/15,00:00,0.579,0.834,0.522,1.068,0.738,0.330,0.593,0.562,�k�k��,6.7,��
2023/01/15,00:10,0.579,0.831,0.520,1.069,0.737,0.329,0.591,0.560,�k�k��,7.4,��
2023/01/15,00:20,0.579,0.832,0.522,1.069,0.739,0.329,0.591,0.560,�k,5.6,��
2023/01/15,00:30,0.579,0.835,0.521,1.067,0.738,0.328,0.590,0.561,�k,6.7,��
2023/01/15,00:40,0.579,0.834,0.521,1.068,0.739,0.329,0.591,0.560,�k�k��,7.4,��
2023/01/15,00:50,0.578,0.833,0.522,1.067,0.736,0.328,0.591,0.560,�k�k��,5.5,��
2023/01/15,01:00,0.579,0.832,0.521,1.067,0.739,0.328,0.591,0.560,�k�k��,5.8,��
2023/01/15,01:10,0.579,0.833,0.520,1.069,0.739,0.329,0.592,0.560,�k�k��,7.5,��
2023/01/15,01:20,0.579,0.833,0.521,1.068,0.738,0.329,0.591,0.561,�k�k��,8.8,��
2023/01/15,01:30,0.579,0.831,0.520,1.066,0.738,0.327,0.590,0.560,�k,8.0,��
2023/01/15,01:40,0.578,0.834,0.521,1.067,0.737,0.327,0.590,0.560,�k�k��,7.4,��
2023/01/15,01:50,0.579,0.832,0.520,1.066,0.737,0.327,0.591,0.560,�k�k��,7.2,��
2023/01/15,02:00,0.579,0.833,0.521,1.068,0.737,0.326,0.590,0.559,�k�k��,7.4,��
2023/01/15,02:10,0.578,0.831,0.520,1.066,0.737,0.328,0.591,0.560,�k�k��,8.0,��
2023/01/15,02:20,0.578,0.833,0.521,1.066,0.737,0.328,0.590,0.561,�k�k��,7.7,��
2023/01/15,02:30,0.578,0.834,0.520,1.066,0.738,0.326,0.591,0.560,�k�k��,8.3,��
2023/01/15,02:40,0.577,0.832,0.521,1.065,0.737,0.329,0.591,0.560,�k�k��,7.1,��
2023/01/15,02:50,0.578,0.832,0.519,1.065,0.739,0.328,0.590,0.560,�k�k��,6.9,��
2023/01/15,03:00,0.579,0.832,0.520,1.067,0.737,0.326,0.592,0.560,�k�k��,7.2,��
2023/01/15,03:10,0.578,0.832,0.519,1.068,0.736,0.329,0.593,0.558,�k�k��,7.2,��
2023/01/15,03:20,0.578,0.834,0.521,1.067,0.737,0.327,0.593,0.559,�k�k��,9.4,��
2023/01/15,03:30,0.579,0.832,0.520,1.066,0.736,0.327,0.591,0.560,�k�k��,8.6,��
2023/01/15,03:40,0.578,0.832,0.520,1.068,0.738,0.327,0.590,0.558,�k�k��,7.4,��
2023/01/15,03:50,0.578,0.833,0.520,1.067,0.737,0.329,0.591,0.560,�k�k��,7.1,��
2023/01/15,04:00,0.577,0.831,0.519,1.069,0.737,0.328,0.593,0.559,�k�k��,7.8,��
2023/01/15,04:10,0.577,0.833,0.520,1.066,0.737,0.329,0.591,0.560,�k,6.7,��
2023/01/15,04:20,0.576,0.831,0.520,1.065,0.737,0.327,0.590,0.560,�k�k��,6.3,��
2023/01/15,04:30,0.578,0.833,0.519,1.064,0.737,0.327,0.592,0.559,�k�k��,6.3,��
2023/01/15,04:40,0.575,0.831,0.519,1.067,0.737,0.328,0.591,0.559,�k�k��,6.0,��
2023/01/15,04:50,0.577,0.831,0.520,1.067,0.735,0.328,0.592,0.559,�k�k��,5.8,��
2023/01/15,05:00,0.577,0.830,0.521,1.066,0.736,0.329,0.592,0.560,�k�k��,5.2,��
2023/01/15,05:10,0.577,0.831,0.519,1.067,0.736,0.329,0.591,0.559,�k�k��,5.8,��
2023/01/15,05:20,0.575,0.832,0.521,1.067,0.738,0.328,0.591,0.559,�k,5.5,��
2023/01/15,05:30,0.575,0.830,0.521,1.066,0.735,0.328,0.592,0.559,�k,5.6,��
2023/01/15,05:40,0.577,0.830,0.520,1.066,0.737,0.326,0.591,0.559,�k,6.1,��
2023/01/15,05:50,0.576,0.833,0.519,1.066,0.735,0.328,0.592,0.558,�k,6.3,��
2023/01/15,06:00,0.576,0.830,0.519,1.065,0.737,0.328,0.593,0.559,�k,6.9,��
2023/01/15,06:10,0.578,0.831,0.520,1.065,0.736,0.327,0.592,0.560,�k�k��,6.6,��
2023/01/15,06:20,0.579,0.831,0.520,1.066,0.735,0.328,0.591,0.562,�k,6.4,��
2023/01/15,06:30,0.577,0.831,0.520,1.066,0.736,0.327,0.591,0.560,�k�k��,7.1,��
2023/01/15,06:40,0.577,0.832,0.519,1.064,0.736,0.329,0.594,0.560,�k�k��,6.6,��
2023/01/15,06:50,0.577,0.832,0.520,1.067,0.735,0.327,0.592,0.561,�k�k��,6.9,��
2023/01/15,07:00,0.576,0.832,0.521,1.063,0.734,0.326,0.593,0.558,�k�k��,6.7,��
2023/01/15,07:10,0.576,0.832,0.518,1.067,0.735,0.328,0.590,0.559,�k�k��,8.3,��
2023/01/15,07:20,0.577,0.831,0.519,1.066,0.734,0.328,0.593,0.559,�k�k��,7.8,��
2023/01/15,07:30,0.577,0.831,0.520,1.065,0.735,0.328,0.592,0.560,�k�k��,7.1,��
2023/01/15,07:40,0.577,0.831,0.520,1.067,0.736,0.326,0.591,0.559,�k�k��,6.1,��
2023/01/15,07:50,0.576,0.831,0.520,1.066,0.736,0.327,0.592,0.560,�k�k��,6.3,��
2023/01/15,08:00,0.577,0.830,0.520,1.068,0.736,0.327,0.592,0.560,�k�k��,6.6,��
2023/01/15,08:10,0.576,0.831,0.519,1.066,0.737,0.326,0.592,0.559,�k�k��,7.1,��
2023/01/15,08:20,0.576,0.834,0.519,1.068,0.736,0.328,0.592,0.559,�k�k��,6.3,��
2023/01/15,08:30,0.577,0.832,0.519,1.067,0.736,0.328,0.593,0.560,�k�k��,5.5,��
2023/01/15,08:40,0.577,0.832,0.518,1.066,0.736,0.327,0.591,0.561,�k�k��,5.8,��
2023/01/15,08:50,0.576,0.834,0.518,1.065,0.737,0.328,0.595,0.560,�k,4.2,��
2023/01/15,09:00,0.578,0.831,0.518,1.067,0.736,0.328,0.592,0.561,�k�k��,4.5,��
2023/01/15,09:10,0.577,0.831,0.520,1.066,0.736,0.328,0.592,0.560,�k�k��,5.3,��
2023/01/15,09:20,0.579,0.831,0.520,1.066,0.737,0.327,0.592,0.559,�k�k��,5.5,��
2023/01/15,09:30,0.577,0.833,0.518,1.066,0.736,0.328,0.590,0.559,�k�k��,4.1,��
2023/01/15,09:40,0.577,0.833,0.520,1.067,0.737,0.327,0.591,0.559,�k,4.6,��
2023/01/15,09:50,0.576,0.833,0.519,1.068,0.738,0.328,0.590,0.560,�k,5.5,��
2023/01/15,10:00,0.576,0.831,0.519,1.066,0.736,0.327,0.590,0.560,�k,6.1,��
2023/01/15,10:10,0.578,0.830,0.521,1.067,0.738,0.328,0.591,0.559,�k,6.3,��
2023/01/15,10:20,0.577,0.830,0.519,1.068,0.738,0.328,0.590,0.558,�k,6.0,��
2023/01/15,10:30,0.577,0.831,0.520,1.068,0.736,0.329,0.590,0.559,�k�k��,7.2,��
2023/01/15,10:40,0.576,0.830,0.520,1.068,0.737,0.327,0.590,0.561,�k,7.4,��
2023/01/15,10:50,0.578,0.831,0.521,1.066,0.739,0.329,0.591,0.559,�k,6.9,��
2023/01/15,11:00,0.578,0.830,0.522,1.068,0.737,0.329,0.590,0.560,�k�k��,8.2,��
2023/01/15,11:10,0.579,0.833,0.520,1.067,0.738,0.328,0.589,0.559,�k�k��,8.5,��
2023/01/15,11:20,0.577,0.832,0.522,1.067,0.739,0.328,0.590,0.561,�k,7.7,��
2023/01/15,11:30,0.578,0.830,0.520,1.067,0.737,0.328,0.589,0.561,�k�k��,7.7,��
2023/01/15,11:40,0.577,0.829,0.521,1.068,0.739,0.327,0.590,0.560,�k,8.0,��
2023/01/15,11:50,0.576,0.830,0.522,1.069,0.737,0.328,0.588,0.559,�k�k��,7.1,��
2023/01/15,12:00,0.577,0.832,0.521,1.066,0.737,0.328,0.590,0.561,�k�k��,7.2,��
2023/01/15,12:10,0.580,0.831,0.519,1.068,0.737,0.328,0.591,0.559,�k�k��,7.7,��
2023/01/15,12:20,0.580,0.831,0.520,1.069,0.737,0.329,0.590,0.561,�k�k��,6.7,��
2023/01/15,12:30,0.579,0.831,0.521,1.068,0.734,0.328,0.591,0.559,�k,7.7,��
2023/01/15,12:40,0.579,0.830,0.522,1.067,0.735,0.327,0.590,0.558,�k�k��,6.9,��
2023/01/15,12:50,0.579,0.831,0.521,1.067,0.737,0.328,0.588,0.558,�k,6.6,��
2023/01/15,13:00,0.579,0.832,0.522,1.069,0.736,0.327,0.590,0.559,�k�k��,6.4,��
2023/01/15,13:10,0.578,0.830,0.520,1.069,0.739,0.327,0.591,0.559,�k,5.8,��
2023/01/15,13:20,0.579,0.830,0.521,1.065,0.735,0.328,0.588,0.559,�k�k��,6.6,��
2023/01/15,13:30,0.577,0.832,0.521,1.068,0.737,0.327,0.590,0.560,�k�k��,6.0,��
2023/01/15,13:40,0.579,0.831,0.520,1.068,0.736,0.329,0.590,0.561,�k,4.4,��
2023/01/15,13:50,0.580,0.831,0.522,1.066,0.739,0.328,0.590,0.560,�k,5.0,��
2023/01/15,14:00,0.578,0.831,0.520,1.067,0.738,0.328,0.591,0.562,�k,5.2,��
2023/01/15,14:10,0.579,0.833,0.523,1.067,0.739,0.328,0.590,0.560,�k,4.4,��
2023/01/15,14:20,0.579,0.834,0.521,1.069,0.737,0.328,0.590,0.560,�k,3.5,��
2023/01/15,14:30,0.579,0.834,0.520,1.069,0.740,0.328,0.590,0.562,�k�k��,3.2,��
2023/01/15,14:40,0.580,0.834,0.521,1.070,0.738,0.328,0.592,0.560,�k,2.9,��
2023/01/15,14:50,0.580,0.834,0.521,1.068,0.741,0.328,0.591,0.562,�k,2.9,��
2023/01/15,15:00,0.578,0.836,0.521,1.068,0.739,0.327,0.591,0.561,�k�k��,2.8,��
2023/01/15,15:10,0.579,0.836,0.520,1.070,0.740,0.328,0.591,0.560,�k�k��,3.3,��
2023/01/15,15:20,0.581,0.835,0.521,1.067,0.738,0.328,0.592,0.561,�k�k��,3.1,�L
2023/01/15,15:30,0.580,0.834,0.520,1.068,0.739,0.328,0.591,0.560,�k��,3.2,�L
2023/01/15,15:40,0.578,0.834,0.522,1.067,0.740,0.329,0.593,0.561,�k��,2.5,�L
2023/01/15,15:50,0.580,0.835,0.521,1.070,0.740,0.328,0.591,0.559,�k��,2.8,�L
2023/01/15,16:00,0.579,0.837,0.523,1.069,0.739,0.329,0.590,0.561,�k�k��,2.8,�L
2023/01/15,16:10,0.580,0.835,0.521,1.068,0.739,0.329,0.592,0.561,�k��,2.5,�L
2023/01/15,16:20,0.579,0.834,0.522,1.070,0.740,0.330,0.592,0.560,�k�k��,2.7,�L
2023/01/15,16:30,0.580,0.836,0.522,1.069,0.739,0.329,0.591,0.560,�k��,3.4,�L
2023/01/15,16:40,0.580,0.836,0.522,1.067,0.738,0.331,0.593,0.560,�k��,3.1,�L
2023/01/15,16:50,0.579,0.837,0.523,1.070,0.739,0.329,0.593,0.559,�k��,3.4,�L
2023/01/15,17:00,0.580,0.834,0.522,1.070,0.740,0.329,0.593,0.560,�k�k��,4.6,�L
2023/01/15,17:10,0.579,0.836,0.524,1.068,0.739,0.329,0.595,0.561,�k��,5.0,�L
2023/01/15,17:20,0.581,0.834,0.522,1.067,0.739,0.329,0.593,0.559,�k��,5.2,�L
2023/01/15,17:30,0.579,0.834,0.522,1.068,0.739,0.330,0.593,0.560,�k��,5.2,�L
2023/01/15,17:40,0.579,0.834,0.522,1.068,0.738,0.329,0.591,0.560,�k�k��,4.9,�L
2023/01/15,17:50,0.578,0.835,0.523,1.069,0.739,0.328,0.591,0.559,�k�k��,4.9,�L
2023/01/15,18:00,0.579,0.834,0.521,1.069,0.738,0.329,0.592,0.561,�k�k��,5.2,�L
2023/01/15,18:10,0.578,0.834,0.523,1.068,0.739,0.328,0.592,0.559,�k��,4.7,�L
2023/01/15,18:20,0.578,0.833,0.521,1.068,0.737,0.328,0.591,0.559,�k�k��,4.6,�L
2023/01/15,18:30,0.580,0.836,0.522,1.069,0.737,0.329,0.593,0.560,�k��,4.1,�L
2023/01/15,18:40,0.580,0.834,0.523,1.069,0.739,0.330,0.593,0.559,�k��,4.1,�L
2023/01/15,18:50,0.580,0.834,0.524,1.067,0.740,0.330,0.594,0.560,�k��,5.2,�L
2023/01/15,19:00,0.580,0.834,0.525,1.069,0.738,0.330,0.592,0.560,�k��,4.7,�L
2023/01/15,19:10,0.581,0.835,0.525,1.070,0.738,0.331,0.592,0.561,�k��,4.4,�L
2023/01/15,19:20,0.579,0.834,0.524,1.070,0.738,0.330,0.592,0.562,�k��,4.1,�L
2023/01/15,19:30,0.581,0.836,0.524,1.070,0.739,0.332,0.593,0.562,�k��,3.6,�L
2023/01/15,19:40,0.580,0.832,0.524,1.069,0.738,0.330,0.592,0.561,�k��,3.3,�L
2023/01/15,19:50,0.581,0.832,0.523,1.068,0.740,0.330,0.593,0.561,�k��,2.5,�L
2023/01/15,20:00,0.580,0.833,0.523,1.071,0.739,0.331,0.592,0.560,�k��,3.1,�L
2023/01/15,20:10,0.580,0.834,0.523,1.071,0.737,0.330,0.592,0.560,�k��,2.8,�L
2023/01/15,20:20,0.580,0.833,0.522,1.068,0.737,0.329,0.592,0.561,�k��,2.9,�L
2023/01/15,20:30,0.581,0.832,0.524,1.070,0.737,0.330,0.591,0.561,�k��,3.1,�L
2023/01/15,20:40,0.580,0.835,0.524,1.071,0.738,0.331,0.591,0.560,�k��,3.3,�L
2023/01/15,20:50,0.579,0.832,0.524,1.070,0.740,0.331,0.591,0.561,�k��,2.9,�L
2023/01/15,21:00,0.579,0.835,0.523,1.072,0.738,0.331,0.591,0.559,�k�k��,3.3,�L
2023/01/15,21:10,0.580,0.832,0.523,1.069,0.737,0.331,0.592,0.560,�k�k��,3.4,�L
2023/01/15,21:20,0.580,0.833,0.524,1.071,0.737,0.331,0.592,0.560,�k�k��,3.8,�L
2023/01/15,21:30,0.581,0.833,0.523,1.070,0.737,0.332,0.591,0.560,�k�k��,2.9,�L
2023/01/15,21:40,0.581,0.833,0.524,1.068,0.737,0.333,0.592,0.560,�k�k��,2.9,�L
2023/01/15,21:50,0.581,0.832,0.525,1.070,0.737,0.332,0.593,0.561,�k�k��,3.2,�L
2023/01/15,22:00,0.581,0.829,0.525,1.070,0.735,0.334,0.593,0.560,�k��,2.9,�L
2023/01/15,22:10,0.581,0.831,0.525,1.071,0.736,0.334,0.593,0.559,�k�k��,2.6,�L
2023/01/15,22:20,0.580,0.830,0.524,1.070,0.738,0.335,0.591,0.560,�k��,2.7,�L
2023/01/15,22:30,0.582,0.829,0.525,1.068,0.737,0.336,0.591,0.561,�k��,3.0,�L
2023/01/15,22:40,0.582,0.829,0.524,1.069,0.734,0.335,0.591,0.560,�k�k��,2.7,�L
2023/01/15,22:50,0.579,0.828,0.524,1.068,0.734,0.335,0.590,0.559,�k��,3.1,�L
2023/01/15,23:00,0.580,0.827,0.524,1.066,0.733,0.335,0.590,0.559,�k��,3.2,�L
2023/01/15,23:10,0.580,0.824,0.524,1.067,0.732,0.334,0.590,0.558,�k�k��,3.3,�L
2023/01/15,23:20,0.579,0.825,0.525,1.064,0.731,0.336,0.588,0.559,�k��,4.5,�L
2023/01/15,23:30,0.579,0.821,0.523,1.064,0.733,0.336,0.590,0.558,�k��,3.8,�L
2023/01/15,23:40,0.579,0.819,0.523,1.064,0.730,0.336,0.588,0.559,�k��,3.8,�L
2023/01/15,23:50,0.578,0.820,0.522,1.061,0.730,0.337,0.590,0.559,�k��,4.1,�L
